Almeria, Spain

6:52 AM CEST en Abril 24, 2018 (GMT +0200)
Almeria

Tiempo Historia de LEAM - Enero, 2016

Change the Weather History Date:

Viernes, Enero 1, 2016

  Actual Average Record
Temperature  
Temperatura media 56 ° F -  
Temperatura máxima 64 ° F 58 ° F 66 ° F (2006)
Temperatura mínima 48 ° F 46 ° F 41 ° F (2005)
Degree Days  
Grados día de calefacción 9    
Growing Degree Days 6 (Base 50)    
Moisture  
Punto de rocío 54 ° F    
Average Humidity 83    
Maximum Humidity 100    
Minimum Humidity 62    
Precipitación  
Precipitación 0.00 pul 0.04 pul - ()
Presión al nivel del mar  
Presión al nivel del mar 30.21 pul    
Viento  
Velocidad del viento 3 mph ()    
Velocidad máxima del viento 13 mph    
Max Gust Speed -    
Visibilidad 6.8 Millas    
Eventos      
Averages and records for this station are not official NWS values.
T = Trace of Precipitation, MM = Missing Value Source: Averaged Metar Reports

Daily Weather History Graph

Daily Weather History Graph

Search for Another Location

Airport or City:

Astronomía

Jan. 01, 2016 Salida Puesta
Hora real 8:22 AM CET 6:03 PM CET
Crepúsculo civil 7:53 AM CET 6:32 PM CET
Crepúsculo náutico 7:21 AM CET 7:04 PM CET
Crepúsculo astronómico 6:49 AM CET 7:36 PM CET
Luna 12:11 AM CET (1/1) 12:35 PM CET (1/1)
Horas de luz 10h 38m
Horas de luz
9h 41m
Gibosa menguante, 57% of the Moon is Illuminated
Ene 1
Gibosa menguante
Ene 2
Cuarto menguante
Ene 10
Nueva
Ene 17
Cuarto creciente
Ene 24
Luna llena

Hourly Weather History & Observations

Hora (CET) Temp. Punto de rocío Humedad Presión Visibilidad Wind Dir Velocidad del viento Velocidad de ráfagas Precip Eventos Condiciones
12:00 AM 52 ° F 49 ° F 84% 30.29 pul - NO 2.3 mph - -  
1:00 AM 52 ° F 49 ° F 86% 30.29 pul - Norte 1.2 mph - -  
2:00 AM 51 ° F 49 ° F 91% 30.27 pul - Norte 2.3 mph - -  
3:00 AM - - %  pul - Sin viento Sin viento - -  
4:00 AM - - %  pul - Sin viento Sin viento - -  
5:00 AM - - %  pul - Sin viento Sin viento - -  
5:00 AM - - N/A% 30.21 pul - Norte - - N/A   Parcialmente nublado
5:30 AM - - N/A% 30.21 pul - Norte - - N/A   Parcialmente nublado
6:00 AM 48 ° F 45 ° F 85% 30.23 pul - NE 2.3 mph - -  
6:00 AM 50.0 ° F 48.2 ° F 94% 30.21 pul 6.2 mi Sin viento Sin viento - N/A   Parcialmente nublado
6:30 AM 51.8 ° F 48.2 ° F 88% 30.21 pul 6.2 mi NNO 3.5 mph - N/A   Nubes dispersas
7:00 AM 50 ° F 46 ° F 81% 30.24 pul 25 mi Sin viento Sin viento - -   Muy nublado
7:00 AM 51.8 ° F 48.2 ° F 88% 30.24 pul 6.2 mi Sin viento Sin viento - N/A   Muy nublado
7:30 AM 53.6 ° F 48.2 ° F 82% 30.24 pul 6.2 mi Sin viento Sin viento - N/A   Muy nublado
8:00 AM 53 ° F 48 ° F 78% 30.25 pul - Norte 6.9 mph - -  
8:00 AM 53.6 ° F 50.0 ° F 88% 30.24 pul 6.2 mi Norte 5.8 mph - N/A   Nubes dispersas
8:30 AM 53.6 ° F 50.0 ° F 88% 30.24 pul 6.2 mi Norte 3.5 mph - N/A   Nubes dispersas
9:00 AM 51 ° F 49 ° F 89% 30.27 pul - NNO 4.6 mph - -  
9:00 AM 51.8 ° F 51.8 ° F 100% 30.24 pul 6.2 mi NNO 4.6 mph - N/A   Parcialmente nublado
9:30 AM 53.6 ° F 51.8 ° F 94% 30.27 pul 6.2 mi NNO 6.9 mph - N/A   Parcialmente nublado
10:00 AM 56 ° F 48 ° F 67% 30.28 pul 31 mi Norte 4.6 mph - -   Parcialmente nublado
10:00 AM 57.2 ° F 50.0 ° F 77% 30.27 pul 6.2 mi Norte 4.6 mph - N/A   Nubes dispersas
10:30 AM 60.8 ° F 51.8 ° F 72% 30.27 pul 6.2 mi Sin viento Sin viento - N/A   Muy nublado
11:00 AM 63 ° F 53 ° F 62% 30.29 pul - Sin viento Sin viento - -  
11:00 AM 60.8 ° F 53.6 ° F 77% 30.27 pul 6.2 mi Sin viento Sin viento - N/A   Nubes dispersas
11:30 AM 62.6 ° F 53.6 ° F 72% 30.27 pul 6.2 mi Variable 1.2 mph - N/A   Nubes dispersas
12:00 PM 63 ° F 54 ° F 63% 30.28 pul - Sin viento Sin viento - -  
12:00 PM 62.6 ° F 55.4 ° F 77% 30.27 pul 6.2 mi Sin viento Sin viento - N/A   Muy nublado
12:30 PM 62.6 ° F 55.4 ° F 77% 30.24 pul 6.2 mi Variable 1.2 mph - N/A   Muy nublado
1:00 PM 62 ° F 54 ° F 67% 30.25 pul 22 mi Sin viento Sin viento - -   Muy nublado
1:00 PM 60.8 ° F 55.4 ° F 82% 30.24 pul 6.2 mi Sin viento Sin viento - N/A   Muy nublado
1:30 PM 62.6 ° F 55.4 ° F 77% 30.24 pul 6.2 mi Variable 1.2 mph - N/A   Muy nublado
2:00 PM 62 ° F 55 ° F 70% 30.23 pul - SSO 2.3 mph - -  
2:00 PM 62.6 ° F 57.2 ° F 82% 30.21 pul 6.2 mi Variable 1.2 mph - N/A   Muy nublado
2:30 PM 60.8 ° F 57.2 ° F 88% 30.21 pul 6.2 mi Variable 1.2 mph - N/A   Muy nublado
3:00 PM 62 ° F 56 ° F 73% 30.20 pul - SSE 3.5 mph - -  
3:00 PM 62.6 ° F 57.2 ° F 82% 30.18 pul 6.2 mi Variable 2.3 mph - N/A   Muy nublado
3:30 PM 62.6 ° F 57.2 ° F 82% 30.18 pul 6.2 mi SSO 4.6 mph - N/A   Muy nublado
4:00 PM 65 ° F 57 ° F 69% 30.19 pul 16 mi Sur 6.9 mph - -   Muy nublado
4:00 PM 64.4 ° F 59.0 ° F 83% 30.18 pul 6.2 mi Sur 6.9 mph - N/A   Muy nublado
4:30 PM 62.6 ° F 59.0 ° F 88% 30.15 pul 6.2 mi SO 6.9 mph - N/A   Muy nublado
5:00 PM 63 ° F 56 ° F 73% 30.17 pul - SO 11.5 mph - -  
5:00 PM 62.6 ° F 59.0 ° F 88% 30.15 pul 6.2 mi SO 10.4 mph - N/A   Muy nublado
5:30 PM 62.6 ° F 59.0 ° F 88% 30.15 pul 6.2 mi SO 12.7 mph - N/A   Muy nublado
6:00 PM 60 ° F 56 ° F 82% 30.17 pul - SO 11.5 mph - -  
6:00 PM 60.8 ° F 57.2 ° F 88% 30.15 pul 6.2 mi SO 10.4 mph - N/A   Muy nublado
6:30 PM 60.8 ° F 57.2 ° F 88% 30.15 pul 6.2 mi SO 9.2 mph - N/A   Muy nublado
7:00 PM 59 ° F 55 ° F 84% 30.17 pul 25 mi OSO 9.2 mph - -   Muy nublado
7:00 PM 60.8 ° F 57.2 ° F 88% 30.15 pul 6.2 mi OSO 8.1 mph - N/A   Muy nublado
7:30 PM 59.0 ° F 57.2 ° F 94% 30.15 pul 6.2 mi OSO 6.9 mph - N/A   Muy nublado
8:00 PM 59 ° F 56 ° F 85% 30.17 pul - SO 5.8 mph - -  
8:00 PM 59.0 ° F 57.2 ° F 94% 30.15 pul 6.2 mi SO 4.6 mph - N/A   Muy nublado
8:30 PM 59.0 ° F 57.2 ° F 94% 30.15 pul 6.2 mi Variable 2.3 mph - N/A   Muy nublado
9:00 PM 59 ° F 56 ° F 85% 30.18 pul - SO 1.2 mph - -  
9:00 PM 59.0 ° F 57.2 ° F 94% 30.15 pul 6.2 mi Sin viento Sin viento - N/A   Muy nublado
9:30 PM 59.0 ° F 57.2 ° F 94% 30.15 pul 6.2 mi Variable 1.2 mph - N/A   Muy nublado
10:00 PM 59 ° F 56 ° F 85% 30.18 pul 19 mi Sin viento Sin viento - -   Muy nublado
10:00 PM 59.0 ° F 57.2 ° F 94% 30.15 pul 6.2 mi Sin viento Sin viento - N/A   Muy nublado
10:30 PM 59.0 ° F 57.2 ° F 94% 30.15 pul 6.2 mi Sin viento Sin viento - N/A   Muy nublado
11:00 PM 59 ° F 55 ° F 84% 30.17 pul - NO 1.2 mph - -